#timestamp,LO_Frequency,Hit,StdDev 
1549458015.9,286046998.1,N
1549458035.7,286046998.9,N
1549458055.5,286046998.6,N
1549458075.4,286046999.0,N
1549458095.2,286046996.8,N
1549458115.1,286046997.1,N
1549458116.0,286046997.1,N
1549458135.8,286046999.3,N
1549458155.6,286046996.9,N
1549458175.5,286046997.0,N
1549458195.3,286046997.4,N
1549458215.1,286046999.0,N
1549458235.9,286046998.8,N
1549458255.7,286046998.9,N
1549458275.6,286046998.4,N
1549458295.4,286046998.8,N
1549458315.2,286047000.5,N
1549458335.1,286046998.7,N
1549458336.0,286046998.7,N
1549458355.8,286046998.6,N
1549458375.6,286047001.2,N
1549458395.5,286047000.9,N
1549458415.3,286047000.3,N
1549458435.2,286047002.2,N
1549458455.9,286047001.7,N
1549458475.7,286047002.7,N
1549458495.6,286047002.3,N
1549458515.4,286046999.7,N
1549458535.2,286046999.9,N
1549458555.1,286047000.2,N
1549458556.0,286047000.2,N
1549458575.8,286046999.9,N
1549458595.7,286047000.3,N
1549458615.5,286047000.4,N
1549458635.3,286047001.1,N
1549458655.2,286046998.5,N
1549458675.9,286046998.3,N
1549458695.7,286046999.3,N
1549458715.6,286046996.7,N
1549458735.4,286046999.3,N
1549458755.2,286046999.2,N
1549458775.1,286046997.1,N
1549458776.0,286046997.1,N
1549458795.8,286046996.9,N
1549458815.7,286046997.1,N
1549458835.5,286046999.5,N
1549458855.3,286046999.3,N
1549458875.2,286047001.2,N
1549458895.0,286046998.5,N
1549458895.9,286046998.5,N
1549458915.7,286046998.8,N
1549458935.6,286046998.7,N
1549458955.4,286046999.5,N
1549458975.3,286046996.8,N
1549458995.1,286046996.5,N
1549458996.0,286046996.5,N
1549459015.8,286046998.4,N
1549459035.7,286046998.7,N
1549459055.5,286046999.4,N
1549459075.3,286046998.3,N
1549459095.2,286046999.1,N
1549459115.0,286046999.2,N
1549459115.9,286046999.2,N
1549459135.8,286046997.0,N
1549459155.6,286046999.4,N
1549459175.4,286046998.2,N
1549459195.3,286047002.4,N
1549459215.1,286047000.2,N
1549459235.8,286046998.6,N
1549459255.7,286046998.4,N
1549459275.5,286046998.1,N
1549459295.4,286046998.2,N
1549459315.2,286047000.8,N
1549459335.0,286046999.9,N
1549459335.9,286046999.9,N
1549459355.8,286047001.1,N
1549459375.6,286046998.4,N
1549459395.4,286046999.6,N
1549459415.3,286046998.1,N
1549459435.1,286046998.2,N
1549459455.9,286046998.3,N
1549459475.7,286046998.7,N
1549459495.5,286046998.7,N
1549459515.4,286047000.8,N
1549459535.2,286047001.1,N
1549459555.0,286047001.2,N
1549459555.9,286047001.2,N
1549459575.8,286046998.7,N
1549459595.6,286046999.6,N
1549459615.5,286046998.8,N
1549459635.3,286047000.8,N
1549459655.1,286046998.8,N
1549459675.9,286046998.5,N
1549459695.7,286046998.5,N
1549459715.5,286046998.6,N
1549459735.4,286046999.4,N
1549459755.2,286047001.2,N
1549459775.1,286046998.6,N
1549459776.0,286046998.6,N
1549459795.8,286047001.0,N
1549459815.6,286047000.9,N
1549459835.5,286047000.3,N
1549459855.3,286047000.0,N
1549459875.1,286047002.2,N
1549459895.9,286047002.4,N
1549459915.7,286047001.9,N
1549459935.6,286047002.3,N
1549459955.4,286047001.4,N
1549459975.2,286047001.6,N
1549459995.1,286047001.5,N
1549459996.0,286047001.5,N
1549460015.8,286047002.1,N
1549460035.7,286047002.2,N
1549460055.5,286046999.8,N
1549460075.3,286047000.0,N
1549460095.2,286046999.9,N
1549460115.0,286047000.4,N
1549460115.9,286047000.4,N
1549460135.7,286047001.0,N
1549460155.6,286047000.4,N
1549460175.4,286047000.8,N
1549460195.3,286046999.9,N
1549460215.1,286047002.7,N
1549460216.0,286047002.7,N
1549460235.8,286047002.8,N
1549460255.7,286047002.1,N
1549460275.5,286047001.5,N
1549460295.4,286047001.7,N
1549460315.2,286047001.9,N
1549460335.0,286047001.4,N
1549460335.9,286047001.4,N
1549460355.8,286046999.7,N
1549460375.6,286047000.6,N
1549460395.5,286047001.0,N
1549460415.3,286047000.0,N
1549460435.1,286047002.5,N
1549460455.9,286047002.4,N
1549460475.7,286047000.9,N
1549460495.5,286046998.5,N
1549460515.4,286046998.7,N
1549460535.2,286046998.7,N
1549460555.1,286047000.6,N
1549460556.0,286047000.6,N
1549460575.8,286047000.1,N
1549460595.6,286046999.9,N
1549460615.5,286047001.1,N
1549460635.3,286047000.8,N
1549460655.2,286046998.5,N
1549460675.9,286046998.5,N
1549460695.7,286046998.3,N
1549460715.6,286046998.7,N
1549460735.4,286046999.1,N
1549460755.2,286046999.1,N
1549460805.1,286046999.1,E
1549460815.0,286046999.5,N
1549460815.9,286046999.5,P
1549460835.8,286046999.0,P
1549460855.6,286046998.9,Y
1549460875.5,286047000.9,P
1549460895.3,286047000.7,N
1549460915.1,286047000.3,N
1549460935.9,286047000.6,N
1549460955.7,286047000.7,N
1549460975.5,286047000.7,N
1549460995.4,286047000.3,N
1549461015.2,286047001.0,N
1549461035.0,286047000.3,N
1549461035.9,286047000.3,N
1549461055.8,286047000.4,N
1549461075.6,286047000.3,N
1549461095.5,286047000.2,N
1549461115.3,286047000.6,N
1549461135.1,286047000.8,N
1549461155.9,286047000.3,N
1549461175.7,286047000.3,N
1549461195.5,286047000.6,N
1549461215.4,286047000.6,N
1549461235.2,286047000.9,N
1549461255.1,286047000.8,N
1549461256.0,286047000.8,N
1549461275.8,286046998.2,Y
1549461295.6,286047001.1,P
1549461315.5,286047000.9,N
1549461335.3,286046998.9,P
1549461355.1,286047001.1,N
1549461375.9,286047000.9,N
1549461395.7,286047001.1,N
1549461415.6,286046998.2,N
1549461435.4,286046999.2,N
1549461455.2,286046998.5,N
1549461475.1,286046998.9,N
1549461476.0,286046998.9,N
1549461495.8,286046998.7,N
1549461515.6,286046999.1,N
1549461535.5,286046998.5,N
1549461555.3,286046999.4,N
1549461575.2,286046998.7,N
1549461595.9,286046999.6,N
